Wind_Speed
13 14 16 16 16 18 18 16 16 17 16 16 16 13 13 13 13 15 17 17 18 19 21 23 23 24 25 27 30 31 32 33 30 25 17 13 11 10 8 8 7 5 8
7 10 12 14 16 16 15 14 15 15 17 16 16 14 14 14 13 14 16 17 18 20 21 22 21 23 24 26 29 30 30 32 29 24 18 14 11 7 6 9 8 11 11
18 13 12 13 15 14 14 14 17 18 17 19 18 16 14 15 14 12 13 17 17 18 20 21 20 21 23 26 28 29 29 31 29 25 19 16 11 8 8 11 11 10 8
24 24 22 21 20 20 19 19 19 20 22 21 21 19 16 15 14 13 14 16 18 18 19 20 18 19 22 25 26 27 28 29 28 25 20 16 10 10 12 11 12 8 7
28 25 23 23 23 20 19 21 21 23 23 23 23 21 18 17 17 18 19 17 20 21 18 22 18 18 21 23 24 24 25 27 26 24 20 16 10 13 12 13 11 9 9
24 23 27 23 23 20 24 25 24 21 22 23 22 23 23 21 19 21 24 23 21 22 17 20 18 16 19 21 22 22 22 25 24 24 21 16 10 11 13 11 13 10 9
13 23 27 28 24 28 23 25 17 23 23 24 24 25 25 22 21 24 25 26 20 21 15 17 16 13 17 19 19 19 19 21 21 22 20 16 11 9 12 14 12 12 15
15 21 23 21 21 22 24 17 22 20 23 26 27 29 29 27 26 24 21 22 17 16 12 13 14 11 15 18 17 17 18 19 20 20 18 16 12 9 9 12 12 13 17
20 20 20 18 23 25 26 27 25 27 21 29 27 29 32 35 36 30 14 12 11 10 10 11 12 10 13 15 16 16 16 16 18 18 18 16 13 10 8 9 11 12 16
20 20 17 19 22 19 18 16 18 17 17 27 31 38 39 44 46 49 7 12 10 8 11 10 10 8 11 11 10 13 15 15 15 15 17 15 13 10 8 8 9 10 12
16 16 17 19 22 24 24 26 23 22 22 22 25 35 42 51 58 62 30 13 8 7 10 8 9 7 9 10 9 12 13 15 14 13 15 15 12 11 7 6 7 8 11
20 21 20 17 16 17 19 24 27 24 26 27 25 28 40 39 20 26 6 17 12 9 10 8 8 6 6 7 8 12 12 11 12 11 11 13 12 11 10 6 5 9 10
28 29 28 28 22 19 18 19 22 16 16 16 15 19 13 7 2 13 1 8 9 10 10 9 6 7 8 7 8 10 12 9 10 9 8 9 11 10 9 8 6 6 11
31 32 30 29 26 22 21 21 21 17 13 11 9 8 2 4 3 6 7 9 9 10 11 10 8 8 10 6 8 10 9 10 8 7 5 6 8 9 7 7 6 5 9
29 29 33 32 28 25 22 22 23 21 12 13 13 9 10 11 12 12 11 12 14 14 12 11 11 11 11 10 8 12 10 11 10 6 5 3 4 6 7 5 4 3 4
30 30 31 32 30 27 24 22 25 23 21 17 17 17 17 21 20 16 12 13 15 16 15 11 13 14 14 13 11 12 13 14 12 7 5 3 3 4 5 5 3 1 3
31 31 31 30 29 24 23 22 24 25 25 21 21 22 21 20 19 16 15 15 15 16 15 15 17 18 18 16 15 16 17 19 16 12 8 7 5 3 2 2 1 0 4
28 30 29 27 26 23 21 23 23 25 23 24 25 24 20 21 19 19 19 18 16 13 14 18 20 22 22 22 21 23 23 22 19 15 11 9 9 6 4 1 1 1 3
24 26 28 26 23 22 22 24 22 23 25 22 23 23 20 18 17 16 16 15 12 12 13 14 16 19 20 23 25 27 26 24 23 14 12 13 12 11 8 6 4 3 4
27 26 26 26 24 23 22 25 25 24 19 21 21 20 18 15 15 15 14 12 11 12 13 13 14 13 15 19 25 25 27 23 17 17 11 17 19 17 13 11 8 7 6
29 29 27 25 23 25 24 23 26 25 26 23 19 18 18 17 16 15 15 15 15 14 14 14 13 12 11 11 22 9 16 17 20 17 18 14 19 22 17 15 12 10 9
26 22 20 21 25 24 27 24 23 26 27 25 23 21 20 20 20 19 19 19 18 16 16 16 15 12 10 8 9 14 15 16 16 17 18 19 20 23 22 20 17 15 13
26 27 23 19 19 25 27 29 23 22 22 21 22 24 26 26 25 23 23 22 21 20 19 19 20 18 16 14 13 13 14 15 16 18 17 13 15 22 24 23 19 19 17
29 29 29 21 18 19 23 27 26 20 20 21 19 18 19 20 21 23 24 24 24 23 24 23 21 19 16 15 14 13 14 15 17 17 18 12 13 16 24 22 25 23 22
26 24 23 24 19 20 23 24 28 23 18 17 19 19 18 17 17 17 19 21 22 21 21 19 18 16 17 17 17 17 17 16 13 11 17 16 12 22 25 26 26 25 26
17 18 16 12 14 17 20 19 22 22 19 16 16 17 17 16 15 15 16 16 16 16 17 18 19 18 18 19 19 19 20 19 19 16 16 17 21 22 18 22 27 27 27
Wind_Direction
241 238 234 233 233 237 241 242 249 256 262 269 275 280 287 292 295 299 303 309 317 320 324 334 344 341 344 346 344 350 352 350 353 352 349 356 356 15 9 20 4 75 94
240 239 245 237 239 242 245 250 256 259 264 266 270 275 277 281 287 292 301 307 314 318 322 328 338 340 344 346 345 350 354 352 357 357 356 2 9 30 51 60 92 103 116
223 229 224 230 236 241 246 249 253 261 264 267 268 268 270 276 283 284 299 308 312 322 321 323 330 339 344 347 346 348 356 355 0 359 1 9 25 50 75 98 108 117 102
225 229 234 236 239 240 245 252 260 259 263 264 267 266 266 269 275 280 287 299 310 315 322 324 326 339 345 346 347 348 356 360 3 3 7 17 41 78 94 103 110 98 55
233 236 237 238 245 247 255 260 264 268 263 264 266 266 266 264 266 276 283 295 300 308 321 327 324 338 346 345 348 349 358 1 7 8 12 24 57 91 100 115 120 80 46
235 247 242 237 240 253 249 246 245 260 270 266 264 263 262 262 266 276 285 289 290 295 311 325 319 337 341 345 344 348 359 3 11 14 15 28 54 93 98 102 98 60 49
273 262 244 260 268 264 267 274 268 242 253 270 263 257 256 256 265 273 282 285 290 287 303 322 310 335 340 341 342 347 0 8 10 17 22 27 50 82 99 107 98 72 61
293 273 270 279 267 279 276 276 279 296 257 267 270 266 264 265 263 261 270 280 288 282 296 311 302 332 334 335 339 352 359 11 11 20 27 32 48 76 88 106 104 77 73
286 283 270 267 276 282 280 278 270 275 285 264 263 270 273 277 267 258 246 275 283 290 296 303 301 327 329 334 341 356 358 12 13 18 21 38 40 65 85 96 109 96 75
294 287 270 268 271 281 283 287 263 281 288 263 268 277 283 285 269 259 201 255 268 278 293 290 293 314 326 329 340 354 4 7 13 20 16 30 43 51 76 94 99 109 99
291 286 281 276 277 274 276 283 280 278 286 286 271 266 269 280 270 265 273 229 265 269 262 277 288 316 324 320 320 343 356 2 12 17 24 16 29 45 57 85 107 106 117
292 295 295 288 278 273 272 277 279 282 284 279 276 281 303 304 229 255 196 192 238 246 277 272 282 304 304 305 307 326 348 3 9 12 26 21 16 23 48 77 104 120 129
283 285 285 289 288 274 272 274 281 288 280 295 270 294 353 341 329 83 195 214 225 247 266 258 279 296 284 307 288 302 332 338 0 8 14 25 22 14 17 47 81 128 137
265 269 273 275 275 275 266 265 275 280 269 274 266 309 105 57 330 266 262 250 260 262 266 261 261 270 278 287 281 280 309 318 344 356 13 11 23 21 14 13 50 89 142
269 269 272 275 270 266 263 258 261 272 259 254 248 257 234 232 240 278 284 264 261 258 259 257 257 267 276 273 267 271 285 289 309 340 339 2 359 29 16 13 15 66 132
274 271 269 274 276 267 260 252 250 255 263 254 250 248 243 239 244 248 250 258 252 254 260 263 259 262 266 267 266 266 269 276 275 291 299 301 308 343 30 13 6 112 129
279 276 272 270 273 271 258 246 242 244 248 247 247 247 241 245 240 242 245 252 256 256 262 265 267 264 261 255 258 256 255 263 264 261 271 275 264 270 333 14 26 293 161
284 281 278 272 269 266 250 241 237 237 244 247 248 249 247 235 237 237 236 236 239 247 257 264 268 267 259 256 249 251 252 252 255 254 258 270 258 233 247 250 301 207 198
287 285 283 278 265 259 249 234 230 235 236 241 242 244 242 232 226 222 219 219 226 237 251 261 270 283 266 252 244 253 248 250 253 236 263 273 248 232 226 227 217 203 211
293 286 279 279 267 256 250 234 227 234 234 232 227 234 238 228 218 216 219 219 228 240 251 264 278 297 293 231 246 244 246 240 237 243 258 275 232 228 216 222 212 210 202
290 293 280 271 265 255 253 240 224 219 225 226 223 224 234 228 229 225 224 224 228 236 248 259 269 278 292 252 235 213 210 233 228 248 244 261 256 227 211 217 215 205 207
289 285 281 275 259 252 248 244 236 233 231 228 225 227 229 230 230 230 228 227 230 238 248 259 267 277 273 248 229 231 232 228 226 236 250 267 241 223 226 210 211 210 209
286 279 274 274 255 251 249 244 232 229 226 223 221 225 231 235 234 232 231 232 234 241 251 260 265 268 268 255 241 234 236 234 227 240 244 263 239 224 238 216 207 218 210
291 281 262 266 263 251 246 245 237 226 221 217 220 219 224 229 232 231 232 235 239 247 256 260 260 261 258 256 257 248 242 243 244 227 218 240 223 252 239 225 214 216 215
306 295 269 262 264 249 242 236 234 230 228 225 223 222 224 226 226 226 230 234 239 242 243 251 256 256 254 257 261 266 248 265 232 234 220 230 254 236 242 237 214 217 218
320 299 301 276 282 246 240 237 227 229 227 228 224 222 219 224 226 229 234 235 237 244 253 260 264 264 261 258 259 254 257 246 233 226 229 245 242 231 220 232 226 225 221
Height
3198 3200 3202 3204 3205 3207 3208 3208 3209 3209 3209 3208 3208 3207 3206 3205 3204 3202 3200 3198 3196 3192 3188 3185 3182 3177 3171 3166 3159 3154 3147 3140 3132 3125 3120 3117 3113 3111 3110 3109 3108 3108 3108
3196 3197 3200 3201 3203 3204 3205 3205 3205 3205 3205 3205 3204 3204 3203 3201 3200 3199 3198 3196 3193 3190 3188 3185 3181 3176 3171 3166 3159 3154 3147 3140 3132 3125 3121 3116 3113 3111 3109 3109 3109 3109 3109
3193 3195 3196 3197 3199 3200 3201 3202 3201 3202 3201 3201 3201 3200 3199 3198 3197 3196 3195 3194 3191 3189 3186 3183 3179 3175 3171 3166 3159 3154 3148 3141 3133 3125 3121 3117 3113 3111 3111 3111 3112 3111 3112
3189 3190 3192 3193 3194 3195 3196 3197 3198 3198 3197 3196 3197 3196 3195 3195 3195 3194 3191 3190 3188 3186 3184 3181 3178 3174 3171 3165 3159 3154 3149 3142 3135 3127 3123 3119 3116 3112 3112 3113 3114 3113 3113
3184 3186 3188 3189 3190 3191 3192 3193 3193 3193 3193 3192 3192 3192 3192 3192 3191 3191 3190 3187 3185 3183 3181 3179 3176 3172 3170 3165 3159 3154 3150 3143 3137 3130 3125 3122 3119 3115 3115 3115 3116 3116 3114
3176 3181 3183 3184 3184 3186 3185 3187 3187 3188 3187 3187 3187 3187 3187 3187 3187 3186 3185 3184 3181 3180 3178 3176 3174 3171 3168 3165 3160 3154 3150 3145 3139 3133 3128 3124 3122 3118 3117 3118 3118 3119 3116
3166 3173 3178 3180 3178 3179 3178 3180 3178 3180 3181 3182 3182 3181 3180 3180 3182 3180 3180 3178 3176 3176 3174 3174 3170 3168 3166 3164 3159 3155 3150 3146 3141 3136 3131 3128 3125 3123 3120 3120 3122 3121 3119
3169 3169 3170 3172 3174 3174 3174 3175 3177 3176 3176 3177 3177 3177 3176 3176 3173 3170 3172 3174 3172 3172 3171 3171 3168 3165 3164 3162 3159 3155 3151 3147 3142 3138 3134 3131 3129 3127 3124 3123 3124 3124 3123
3166 3167 3164 3165 3167 3168 3168 3169 3170 3171 3172 3171 3172 3171 3171 3171 3167 3161 3161 3168 3169 3168 3168 3167 3166 3163 3162 3160 3159 3156 3152 3148 3143 3140 3137 3134 3131 3130 3128 3128 3127 3127 3127
3161 3160 3160 3161 3163 3163 3163 3163 3164 3166 3166 3166 3166 3164 3164 3162 3157 3134 3146 3162 3164 3163 3164 3164 3163 3161 3160 3159 3158 3155 3153 3150 3146 3142 3139 3137 3133 3132 3132 3130 3130 3131 3132
3159 3157 3157 3157 3158 3158 3158 3158 3159 3161 3162 3161 3160 3157 3157 3152 3148 3131 3133 3155 3159 3159 3160 3160 3160 3159 3160 3158 3156 3156 3153 3151 3148 3143 3141 3139 3136 3134 3133 3133 3133 3134 3135
3152 3152 3152 3153 3154 3154 3153 3151 3151 3154 3154 3153 3152 3150 3143 3124 3130 3128 3132 3141 3152 3155 3156 3157 3157 3156 3158 3156 3155 3154 3153 3151 3149 3145 3141 3140 3138 3136 3135 3135 3135 3136 3136
3146 3146 3146 3147 3148 3149 3148 3145 3146 3148 3149 3148 3147 3145 3138 3130 3135 3134 3134 3142 3147 3150 3152 3154 3153 3154 3155 3153 3153 3153 3151 3150 3148 3147 3143 3141 3140 3139 3136 3135 3136 3137 3139
3139 3137 3138 3139 3141 3143 3142 3141 3140 3143 3145 3144 3143 3140 3136 3134 3135 3140 3142 3143 3146 3148 3149 3150 3151 3151 3152 3150 3151 3151 3150 3150 3148 3147 3145 3142 3140 3139 3138 3137 3136 3138 3139
3131 3130 3130 3129 3131 3132 3132 3133 3135 3137 3140 3139 3139 3137 3135 3136 3136 3138 3139 3141 3144 3145 3146 3147 3148 3148 3147 3147 3149 3148 3149 3149 3148 3145 3146 3144 3142 3140 3138 3138 3137 3137 3139
3122 3122 3121 3121 3122 3122 3123 3124 3126 3128 3131 3134 3135 3134 3134 3135 3136 3137 3138 3139 3140 3141 3142 3142 3143 3144 3144 3144 3145 3146 3146 3146 3145 3145 3143 3143 3143 3141 3139 3138 3139 3139 3139
3113 3113 3113 3114 3114 3114 3115 3117 3118 3119 3123 3127 3128 3129 3130 3130 3131 3132 3133 3135 3135 3136 3136 3137 3138 3138 3139 3140 3141 3141 3141 3142 3142 3142 3142 3141 3141 3141 3140 3139 3139 3139 3140
3106 3104 3105 3104 3105 3106 3108 3110 3111 3113 3115 3117 3120 3122 3124 3125 3126 3127 3128 3129 3131 3130 3132 3132 3133 3132 3132 3133 3135 3136 3135 3138 3138 3138 3139 3140 3140 3140 3139 3139 3139 3138 3140
3101 3098 3097 3097 3098 3099 3099 3102 3104 3106 3108 3110 3112 3114 3116 3118 3119 3120 3122 3123 3124 3125 3126 3127 3126 3125 3124 3124 3126 3128 3131 3132 3132 3134 3137 3137 3139 3139 3139 3138 3138 3138 3139
3093 3093 3092 3091 3092 3093 3093 3094 3097 3099 3102 3103 3106 3107 3109 3111 3112 3113 3116 3117 3119 3121 3121 3120 3120 3118 3118 3117 3120 3120 3124 3126 3128 3130 3131 3134 3133 3134 3136 3137 3136 3137 3138
3085 3085 3085 3086 3086 3087 3087 3087 3089 3091 3094 3096 3099 3102 3104 3105 3107 3108 3110 3112 3114 3115 3116 3117 3116 3115 3114 3113 3115 3116 3118 3121 3124 3127 3127 3127 3128 3130 3132 3134 3135 3135 3137
3078 3077 3077 3078 3079 3080 3081 3081 3082 3084 3086 3089 3092 3096 3099 3100 3102 3103 3106 3108 3108 3110 3111 3111 3111 3111 3112 3111 3112 3114 3116 3117 3118 3120 3122 3122 3122 3126 3128 3130 3132 3132 3134
3070 3069 3070 3070 3070 3072 3073 3075 3076 3077 3079 3081 3084 3087 3089 3092 3094 3097 3099 3101 3103 3104 3105 3105 3106 3107 3108 3108 3109 3110 3111 3112 3114 3115 3116 3117 3118 3120 3123 3126 3128 3130 3132
3061 3060 3060 3061 3063 3064 3065 3067 3069 3071 3073 3075 3077 3079 3082 3084 3087 3089 3090 3093 3096 3098 3099 3100 3100 3101 3102 3103 3105 3105 3105 3106 3108 3109 3110 3111 3112 3114 3116 3120 3122 3126 3128
3052 3050 3050 3051 3053 3055 3056 3058 3062 3064 3067 3068 3071 3073 3076 3079 3081 3083 3085 3087 3090 3092 3093 3094 3095 3095 3096 3097 3098 3099 3100 3101 3102 3104 3105 3107 3107 3109 3111 3113 3118 3121 3123
3049 3046 3044 3044 3045 3046 3048 3050 3054 3058 3061 3064 3066 3068 3071 3074 3076 3078 3081 3082 3084 3086 3087 3088 3089 3089 3090 3091 3091 3091 3092 3094 3096 3098 3099 3100 3101 3103 3106 3110 3113 3115 3118